Retour au catalogue

COSMOS 2251 DEB

ActifVLEO
NORAD 37496·DEBRIS·🇷🇺 Russia

Lancé Jun 16, 1993 depuis Plesetsk Cosmodrome

Loading…

Prochains Passages (prochaines 24 heures)

TLE

PériméSource: Space-Track

Époque: Aug 30, 2026, 10:51 UTC

1 37496U 93036BLZ 26242.45245281  .00025138  00000-0  17016-2 0  9993
2 37496  73.9454 149.1158 0050312 102.8068 257.8750 15.05366138699262

Suivez COSMOS 2251 DEB en temps réel avec AllMySat

Download on the App Store